Wind_Speed
19 19 19 19 19 19 19 19 18 18 18 18 18 17 17 16 15 15 14 13 12 12 11 11 11 10 10 9 9 9 10 10 10 10 11 11 12 12 13 13 13 14 15
19 19 20 21 21 21 21 20 20 20 20 19 19 19 19 19 18 17 17 16 15 15 14 13 13 12 12 11 11 11 11 11 11 11 12 12 13 13 13 13 14 15 16
21 21 21 22 22 22 22 22 22 22 22 22 21 21 21 21 20 20 20 19 18 17 17 16 16 15 14 13 13 12 12 12 12 12 13 13 13 14 14 14 15 15 16
23 23 23 23 24 24 24 24 24 24 24 24 23 23 23 22 22 22 22 22 21 20 19 19 18 17 16 15 15 14 14 14 14 14 14 14 15 15 15 15 16 16 17
24 25 25 25 26 26 26 25 25 25 25 25 25 25 25 24 24 24 24 24 23 23 22 21 20 20 19 18 17 16 16 16 16 15 15 16 16 16 16 16 17 17 18
27 27 27 27 28 28 29 28 28 27 27 27 27 27 26 26 26 26 25 25 25 25 24 23 23 22 21 20 19 18 18 18 17 17 17 17 17 17 17 17 18 18 19
30 30 30 30 31 31 31 31 30 30 30 29 29 29 28 28 28 27 27 27 26 26 26 25 25 24 23 22 21 20 20 20 19 18 18 18 18 18 18 18 19 19 19
32 33 33 33 33 34 34 34 33 33 32 32 31 31 30 30 29 29 29 28 28 28 27 27 26 26 25 24 23 22 22 21 21 20 20 20 19 19 19 19 20 20 20
36 36 36 35 35 36 36 36 36 36 36 35 34 33 33 32 32 31 31 31 30 30 30 29 28 27 26 25 24 24 23 23 22 22 21 21 21 20 20 20 20 20 21
39 39 39 39 38 38 38 38 38 38 38 38 37 37 36 35 34 34 33 33 32 32 32 31 30 29 28 27 26 26 25 25 24 24 23 22 22 21 21 21 21 21 21
42 42 41 41 41 41 41 41 41 41 40 40 40 40 39 38 37 37 36 36 35 35 34 33 33 32 31 29 28 28 28 27 26 25 25 24 23 22 22 21 22 22 22
44 44 44 44 44 44 44 44 44 44 43 43 42 43 43 42 41 40 39 39 38 38 37 35 34 33 33 31 30 29 29 28 28 27 26 25 24 24 23 22 22 23 23
46 46 46 47 46 47 47 47 47 47 47 46 45 45 45 45 45 44 43 42 41 41 39 38 37 35 34 34 32 31 31 30 29 28 28 26 26 25 24 24 23 24 23
47 48 48 49 49 49 50 50 50 49 50 49 48 48 47 47 47 47 46 45 44 43 42 40 39 38 37 36 34 33 32 32 31 30 29 28 27 26 25 25 25 25 25
49 49 50 51 51 52 52 52 53 52 52 52 51 51 50 49 49 49 49 48 46 46 45 43 42 41 39 38 37 35 34 34 32 31 31 29 28 28 27 26 26 26 26
49 50 51 52 52 53 54 54 54 54 54 54 54 54 53 52 52 52 51 50 49 48 47 46 44 43 42 40 39 37 36 35 34 33 32 31 30 29 28 28 27 27 27
50 51 51 52 53 54 55 56 56 56 56 56 57 56 55 54 54 54 54 53 52 51 50 48 47 46 44 43 41 39 38 37 36 34 34 33 32 31 30 29 29 29 29
51 52 52 53 54 55 56 57 57 58 58 58 59 59 57 56 56 56 56 55 55 54 52 50 49 48 46 45 43 41 40 38 37 36 35 34 33 33 32 31 30 30 31
52 52 53 54 55 56 56 57 58 58 59 59 61 61 60 58 58 58 58 57 57 56 54 52 51 50 48 46 45 43 42 40 39 37 36 35 34 34 33 32 32 32 31
52 52 52 54 55 56 57 58 59 59 59 60 62 62 61 61 60 61 60 59 60 59 57 54 52 51 50 49 47 44 43 42 41 39 37 36 35 35 34 33 33 33 32
52 52 51 54 55 56 57 58 59 59 58 60 61 63 62 62 61 62 62 61 62 61 59 56 53 53 52 51 49 46 45 44 42 40 38 37 36 35 35 34 33 33 33
51 51 51 51 52 55 57 58 58 59 58 59 60 62 63 63 62 61 62 62 63 62 60 58 56 54 53 51 49 48 47 46 44 42 40 38 37 37 36 35 35 34 34
50 50 51 51 52 53 54 56 57 58 58 58 59 61 62 62 62 62 62 63 63 63 62 61 58 55 54 53 51 50 48 45 44 43 41 40 39 38 37 37 36 35 35
50 51 50 50 51 51 52 53 54 55 55 56 57 59 61 62 62 62 62 64 63 63 64 62 59 56 55 54 53 51 49 45 45 43 42 41 39 39 38 38 37 36 35
50 51 50 49 49 50 50 51 50 50 51 53 54 56 59 60 61 61 61 61 61 61 62 62 60 58 56 55 54 52 51 48 45 44 42 42 41 40 39 38 37 36 36
49 48 48 48 47 47 47 48 49 48 48 49 50 53 56 57 59 59 59 59 60 60 61 62 61 60 58 56 54 52 51 50 47 45 42 42 42 40 39 38 37 37 36
Wind_Direction
252 251 250 249 250 249 247 245 244 244 244 245 246 245 245 243 244 246 248 250 252 254 257 260 263 269 276 282 286 291 293 297 302 308 313 316 320 322 323 324 327 329 329
254 253 251 250 249 250 250 249 248 248 247 247 248 248 247 247 246 247 249 251 253 255 257 260 262 265 271 277 282 287 290 292 297 303 308 311 314 316 318 319 322 325 326
257 255 253 252 251 250 250 250 250 250 249 248 248 249 249 249 249 249 251 252 254 255 257 259 261 264 266 271 275 280 284 288 293 298 304 306 309 311 313 315 319 321 323
259 257 255 254 253 252 252 252 251 251 251 250 250 249 249 250 250 251 252 253 254 255 256 259 261 263 264 268 271 275 279 284 289 294 299 302 304 307 309 311 315 318 321
259 258 257 255 254 254 253 253 252 253 252 252 252 251 251 250 250 251 252 253 255 256 256 258 260 262 264 266 268 271 275 280 285 290 294 297 301 303 306 308 311 314 317
259 258 258 257 256 255 254 254 253 253 253 253 253 253 253 252 252 251 252 253 255 256 256 257 259 261 263 265 266 268 271 276 281 286 290 294 297 300 303 307 309 312 314
260 259 259 258 257 256 255 254 254 254 254 254 254 254 254 254 253 253 253 253 255 255 256 257 258 259 261 263 265 267 269 273 277 282 286 290 294 297 300 304 307 310 312
261 260 259 259 258 257 255 255 254 254 254 255 255 255 255 254 254 255 255 255 256 257 257 258 258 259 260 262 264 266 267 270 275 279 283 286 289 293 296 300 304 307 309
261 260 260 259 259 258 256 256 255 255 255 254 255 255 256 255 254 255 255 256 257 258 258 258 258 259 260 261 262 264 266 268 271 276 280 283 285 289 292 296 300 304 307
262 261 260 260 259 258 256 255 255 255 255 254 254 255 255 255 255 255 256 256 257 257 257 257 257 258 259 260 261 262 264 266 269 273 277 280 282 285 288 293 297 301 304
263 262 261 261 260 259 257 256 255 255 255 254 254 254 254 255 255 255 254 255 256 256 257 257 257 256 258 259 260 261 262 264 267 271 274 276 278 281 285 289 294 297 301
265 264 263 262 260 259 257 256 255 255 254 254 254 254 254 254 254 254 254 255 255 256 255 256 257 256 256 257 258 259 261 262 265 269 271 273 275 278 282 286 290 294 298
265 264 263 262 261 259 257 256 255 254 254 253 254 253 254 254 254 254 253 253 254 255 255 255 255 256 256 255 255 257 258 260 263 266 268 270 272 275 279 283 287 291 295
265 264 263 262 261 260 258 257 256 254 254 254 253 253 253 253 253 252 252 252 252 254 254 255 254 253 254 254 253 254 256 258 261 264 265 267 270 272 276 280 284 288 291
266 265 264 263 262 261 259 258 257 255 254 253 253 253 253 252 251 251 251 250 250 252 253 253 253 252 252 253 252 253 254 256 259 261 263 265 267 270 274 278 282 286 289
267 266 265 264 263 262 260 259 258 257 255 253 253 252 251 252 250 250 249 248 248 249 251 252 252 251 252 251 251 251 253 254 256 259 260 263 266 268 271 275 280 283 287
269 267 266 265 264 263 261 260 259 258 256 253 252 250 249 250 250 249 248 247 247 247 248 250 251 250 251 251 251 251 252 253 255 257 258 260 263 266 269 272 277 281 286
269 268 266 265 263 262 261 260 259 258 257 254 252 250 248 248 248 248 248 247 246 246 246 247 249 249 250 250 251 251 251 252 253 255 257 259 261 264 267 271 275 279 284
270 269 268 266 265 264 262 262 260 259 257 255 253 251 249 247 246 246 246 246 244 244 244 245 247 248 248 248 250 250 250 251 252 254 255 257 260 263 266 270 273 278 282
272 270 268 268 268 265 264 262 260 259 258 256 253 251 249 247 246 245 244 245 244 243 242 243 244 246 246 247 248 248 249 250 251 252 254 256 258 261 265 269 273 277 281
275 271 270 270 270 268 266 264 261 259 258 256 254 250 248 248 245 244 244 244 243 242 241 241 243 243 244 245 246 247 248 249 250 252 253 255 257 259 263 267 272 276 280
276 274 273 272 271 270 268 266 263 261 258 256 254 250 247 246 244 243 242 242 241 240 239 240 241 241 242 244 245 245 246 247 248 251 253 254 256 258 261 265 270 275 279
278 277 276 273 272 270 269 267 264 262 258 255 253 250 245 244 243 241 241 241 241 240 238 238 239 240 240 241 243 244 245 247 248 250 252 253 256 258 260 264 269 273 277
280 278 278 276 273 271 269 267 265 263 257 254 251 248 244 243 241 240 240 239 240 239 236 235 236 238 239 239 241 243 244 246 247 247 250 253 255 257 260 263 267 271 275
283 280 278 277 275 272 269 266 264 262 258 253 249 246 242 241 240 238 238 238 238 236 234 233 234 236 237 238 240 242 243 244 245 246 249 252 254 256 259 262 266 270 275
284 282 281 277 276 274 269 266 264 262 258 252 248 244 241 240 238 237 236 236 236 234 233 233 233 234 235 235 238 240 241 243 244 244 248 251 254 257 259 262 266 270 274
Height
5838 5839 5840 5841 5842 5844 5845 5846 5847 5849 5850 5851 5852 5853 5853 5854 5855 5857 5858 5859 5860 5860 5861 5862 5862 5863 5864 5864 5864 5864 5864 5864 5863 5863 5863 5862 5861 5860 5860 5859 5858 5856 5855
5834 5836 5837 5838 5839 5840 5841 5843 5844 5845 5846 5848 5848 5849 5850 5851 5852 5854 5855 5856 5857 5858 5859 5859 5860 5861 5861 5862 5862 5862 5862 5862 5862 5861 5861 5860 5860 5859 5858 5857 5856 5855 5853
5831 5832 5833 5834 5835 5836 5837 5839 5840 5841 5843 5844 5845 5846 5847 5848 5849 5850 5852 5853 5854 5855 5856 5857 5858 5858 5859 5860 5860 5860 5860 5860 5860 5859 5859 5858 5858 5857 5856 5855 5854 5853 5851
5827 5828 5829 5830 5831 5832 5833 5835 5836 5837 5838 5840 5841 5842 5843 5844 5845 5847 5848 5849 5850 5852 5853 5854 5854 5855 5856 5857 5857 5857 5857 5857 5857 5857 5857 5856 5856 5855 5854 5853 5852 5851 5849
5822 5823 5824 5825 5826 5827 5828 5830 5831 5833 5834 5835 5836 5837 5839 5840 5841 5842 5844 5845 5846 5848 5849 5850 5851 5852 5853 5854 5854 5855 5855 5855 5855 5855 5854 5854 5853 5853 5852 5851 5850 5848 5847
5816 5818 5819 5820 5821 5822 5823 5825 5826 5827 5829 5830 5832 5833 5834 5835 5836 5838 5839 5840 5842 5843 5845 5846 5847 5848 5849 5850 5851 5851 5851 5852 5852 5852 5852 5851 5850 5850 5849 5848 5847 5846 5844
5811 5812 5813 5814 5815 5816 5818 5819 5820 5822 5823 5825 5826 5827 5829 5830 5831 5833 5834 5836 5837 5839 5840 5841 5843 5843 5845 5846 5847 5848 5848 5848 5848 5849 5848 5848 5847 5847 5846 5845 5844 5843 5841
5804 5805 5806 5807 5808 5810 5811 5813 5814 5816 5817 5819 5820 5822 5823 5824 5826 5827 5829 5830 5832 5833 5835 5837 5838 5839 5840 5841 5843 5843 5844 5844 5845 5845 5845 5845 5844 5843 5843 5842 5841 5840 5838
5796 5797 5798 5800 5801 5802 5804 5805 5807 5809 5810 5812 5814 5815 5817 5818 5820 5821 5823 5825 5826 5828 5829 5831 5833 5834 5835 5837 5838 5839 5839 5840 5841 5841 5841 5841 5840 5840 5839 5838 5838 5837 5835
5787 5789 5790 5792 5793 5795 5796 5798 5799 5801 5803 5804 5806 5808 5810 5811 5813 5815 5816 5818 5820 5821 5823 5825 5827 5829 5830 5832 5833 5834 5835 5835 5836 5836 5837 5837 5836 5836 5835 5835 5834 5833 5832
5778 5779 5781 5783 5784 5786 5788 5789 5791 5792 5794 5796 5798 5800 5802 5804 5806 5808 5810 5811 5813 5815 5817 5818 5820 5822 5824 5826 5827 5829 5830 5830 5831 5831 5832 5832 5832 5832 5831 5830 5830 5829 5828
5767 5769 5770 5772 5774 5776 5778 5780 5781 5783 5785 5787 5789 5791 5793 5796 5798 5800 5802 5804 5806 5807 5809 5811 5814 5816 5818 5820 5821 5823 5824 5825 5826 5826 5827 5827 5827 5827 5826 5826 5825 5824 5823
5757 5758 5759 5761 5763 5765 5767 5769 5771 5773 5775 5777 5779 5781 5783 5786 5788 5791 5793 5795 5798 5799 5801 5804 5806 5809 5811 5813 5815 5816 5818 5819 5820 5821 5821 5822 5822 5822 5822 5821 5820 5820 5819
5745 5746 5747 5748 5750 5752 5754 5757 5759 5762 5764 5766 5768 5770 5772 5776 5778 5780 5783 5786 5789 5791 5793 5796 5798 5801 5803 5805 5807 5809 5811 5812 5814 5815 5815 5816 5816 5817 5816 5816 5815 5815 5814
5733 5734 5734 5735 5737 5739 5741 5743 5746 5749 5751 5754 5756 5758 5761 5764 5767 5770 5772 5775 5779 5781 5784 5787 5790 5792 5795 5797 5799 5802 5804 5805 5807 5808 5809 5810 5811 5811 5811 5811 5810 5810 5809
5719 5720 5721 5722 5723 5725 5727 5729 5731 5734 5737 5739 5743 5745 5748 5752 5755 5758 5761 5764 5767 5771 5774 5777 5780 5783 5786 5789 5791 5794 5796 5798 5800 5801 5803 5804 5805 5805 5805 5805 5805 5804 5803
5705 5706 5707 5708 5708 5710 5712 5714 5716 5719 5721 5724 5728 5731 5734 5738 5742 5745 5749 5752 5756 5759 5763 5767 5770 5773 5777 5780 5783 5786 5788 5790 5792 5794 5796 5797 5798 5799 5799 5799 5799 5798 5798
5690 5691 5692 5692 5693 5695 5696 5698 5700 5702 5704 5708 5712 5716 5720 5724 5727 5731 5735 5740 5743 5747 5751 5756 5760 5763 5767 5771 5774 5777 5779 5781 5784 5786 5788 5790 5791 5792 5792 5793 5793 5792 5791
5675 5675 5676 5676 5678 5679 5681 5682 5684 5686 5688 5691 5695 5699 5704 5708 5713 5717 5722 5726 5730 5734 5739 5744 5748 5752 5756 5760 5764 5767 5770 5773 5775 5778 5780 5782 5783 5785 5785 5786 5786 5786 5785
5659 5660 5660 5660 5661 5663 5664 5666 5668 5669 5671 5674 5678 5682 5687 5692 5697 5702 5707 5712 5717 5721 5727 5732 5736 5741 5745 5749 5753 5757 5761 5764 5766 5769 5772 5774 5776 5777 5778 5779 5779 5779 5778
5644 5644 5644 5645 5645 5645 5646 5648 5650 5652 5654 5657 5660 5665 5670 5675 5680 5686 5691 5697 5702 5707 5714 5719 5724 5729 5734 5739 5743 5747 5751 5754 5758 5761 5763 5766 5768 5770 5771 5771 5772 5772 5771
5630 5630 5629 5629 5629 5628 5629 5630 5631 5634 5636 5639 5643 5647 5652 5657 5663 5669 5675 5682 5687 5693 5699 5706 5712 5717 5722 5728 5733 5736 5739 5744 5748 5752 5755 5757 5760 5761 5763 5763 5764 5764 5764
5616 5615 5614 5614 5613 5612 5612 5612 5613 5615 5617 5621 5625 5629 5634 5640 5646 5652 5659 5665 5672 5678 5685 5692 5699 5705 5711 5716 5721 5726 5730 5735 5739 5743 5746 5749 5751 5753 5755 5755 5756 5756 5756
5603 5601 5600 5598 5597 5596 5595 5595 5596 5597 5600 5604 5607 5611 5616 5621 5628 5635 5642 5649 5656 5663 5670 5678 5685 5691 5698 5704 5709 5715 5721 5726 5729 5734 5737 5740 5742 5744 5746 5747 5748 5748 5748
5590 5587 5585 5584 5583 5582 5580 5580 5581 5582 5584 5586 5590 5594 5600 5605 5611 5618 5625 5633 5640 5648 5656 5664 5671 5678 5685 5692 5698 5704 5710 5715 5719 5724 5728 5731 5733 5735 5737 5739 5740 5740 5740
5576 5574 5571 5570 5568 5567 5567 5566 5566 5567 5568 5571 5574 5579 5585 5590 5596 5602 5610 5618 5626 5634 5641 5649 5657 5665 5672 5680 5686 5693 5699 5704 5709 5713 5718 5721 5724 5727 5729 5730 5731 5732 5732